Location: Newark
(45.6000°N, 12.8833°E)
Time: 02:56:43
(UTC+00:00)

Vanguard 3 - Pass Details

Date: 23 November 2019
Orbit: 508 x 3263 km, 33.3° (Epoch: 11 December)

Event Time Altitude Azimuth Distance (km) Brightness Sun altitude
Rises 16:14:10 0° 273° (W) 7,224 13.4 -7.6°
Reaches altitude 10° 16:19:27 10° 268° (W) 6,192 13.0 -8.5°
Maximum altitude 16:36:42 43° 206° (SSW) 3,526 10.7 -11.4°
Drops below altitude 10° 16:48:59 10° 141° (SE) 4,475 10.7 -13.4°
Sets 16:52:07 0° 134° (SE) 5,135 10.9 -13.9°
